Weather Roundup
Issued by NWS Springfield, MO

Home | Current Version | Previous Version | Text Only | Print | Product List | Glossary On
Versions: 1 2 3 4 5 6 7 8 9 10 11 12 13 14 15 16 17 18 19 20 21 22 23 24 25 26 27 28 29 30 31 32 33 34 35 36 37 38 39 40 41 42 43 44 45 46 47 48 49 50
000
NZUS99 KSGF 280559
HRRSGF

HOURLY WEATHER
NATIONAL WEATHER SERVICE SPRINGFIELD MO
1200 AM CST WED JAN 28 2015

......SGF CWA......

CITY           SKY/WX    TMP DP  RH WIND       PRES   REMARKS
SPRINGFIELD    CLEAR     46  28  49 SE14      30.10F
6HR MIN TEMP:  39; 6HR MAX TEMP:  51;

JOPLIN         CLEAR     49  28  44 SE10      30.06S
6HR MIN TEMP:  48; 6HR MAX TEMP:  58;

WEST PLAINS    CLEAR     39  32  76 SE8       30.20R WCI  33
6HR MIN TEMP:  37; 6HR MAX TEMP:  48;

ROLLA          CLEAR     34  29  82 SE14      30.16S WCI  25
6HR MIN TEMP:  34; 6HR MAX TEMP:  41;

OSAGE BEACH    CLEAR     39  28  65 E6        30.14F WCI  35

......SURROUNDING SGF CWA......

CITY           SKY/WX    TMP DP  RH WIND       PRES   REMARKS
CHANUTE        CLEAR     43  31  62 SE9       30.03S
PARSONS        CLEAR     49  33  54 SE3       30.04S
COFFEYVILLE    CLEAR     45  33  63 S6        30.04S
EMPORIA        CLEAR     41  32  70 SE9       29.98S
SILOAM SPRINGS CLEAR     46  28  49 SE6       30.10S
HARRISON AR    CLEAR     44  30  57 SE8       30.14R
NEAR YELLVILLE CLEAR     43  28  56 E3        30.18R

......KANSAS AND MISSOURI......

CITY           SKY/WX    TMP DP  RH WIND       PRES   REMARKS
KANSAS CTY INT CLEAR     40  31  70 SE14      30.04F WCI  32
DOWNTOWN KC    CLEAR     41  31  67 CALM      30.06F
COLUMBIA       CLEAR     35  30  82 E12       30.16S WCI  27
SEDALIA        CLEAR     37  30  75 SE9       30.13S WCI  30
ST JOSEPH      CLEAR     41  31  67 SE12G21   30.04F
ST LOUIS       CLEAR     29  24  82 E6        30.25R WCI  23
SPIRIT OF STL  CLEAR     29  25  85 E3        30.24R
KIRKSVILLE     CLEAR     28  27  96 E12       30.17F FOG     WCI  18
WICHITA        PTCLDY    46  34  62 S8        29.98R
TOPEKA         CLEAR     42  29  59 E8        30.01F
OLATHE         CLEAR     43  30  60 SE10      30.04F

......TENNESSEE......

CITY           SKY/WX    TMP DP  RH WIND       PRES   REMARKS
MEMPHIS        CLEAR     42  31  64 E7        30.21R
NASHVILLE      CLOUDY    35  30  82 N7        30.25R WCI  29

......ARKANSAS.......

CITY           SKY/WX    TMP DP  RH WIND       PRES   REMARKS
FAYETTEVILLE   CLEAR     35  29  78 CALM      30.11S
FT SMITH       CLEAR     46  33  60 NE7       30.12R
LITTLE ROCK    CLEAR     42  34  73 E6        30.19S

......OKLAHOMA.......

CITY           SKY/WX    TMP DP  RH WIND       PRES   REMARKS
TULSA          MOCLDY    55  36  48 S9        30.03S
PONCA CITY     CLEAR     55  36  48 S6        30.01S
MCALESTER      PTCLDY    55  37  50 SW3       30.09S
OKLAHOMA CITY  PTCLDY    51  37  58 SW7       30.05S

......IOWA............

CITY           SKY/WX    TMP DP  RH WIND       PRES   REMARKS
DES MOINES     PTCLDY    30  26  85 SE13      30.12F WCI  20
QUAD CITIES    CLOUDY    27  22  81 S6        30.24F WCI  20

......ILLINOIS........

CITY           SKY/WX    TMP DP  RH WIND       PRES   REMARKS
QUINCY         CLOUDY    29  26  89 SE10      30.22S FOG     WCI  20
CHICAGO        MOCLDY    24  18  77 CALM      30.25F



USA.gov is the U.S. government's official web portal to all federal, state and local government web resources and services.